RH
82 84 84 83 84 84 85 85 85 84 85 86 86 87 85 91 87 57 20 18 26 62 59 34 22 21 24 25 25 30 27 40 35 32 19 31 32 35 31 35 36 37 44 46 63
83 83 83 82 82 83 85 85 85 84 85 87 87 85 86 92 66 39 36 52 59 72 26 16 18 26 23 21 18 18 24 30 27 29 18 21 30 34 33 37 43 46 58 57 65
83 82 82 81 80 81 84 85 85 85 85 87 88 86 91 83 45 24 65 60 62 63 21 23 23 23 21 17 17 21 19 23 18 24 24 19 28 29 32 40 36 43 65 65 64
83 82 82 81 80 81 80 82 83 84 85 86 87 87 91 70 24 28 65 73 72 37 14 20 16 18 18 15 13 14 14 18 11 16 22 25 27 32 32 25 28 34 55 63 64
82 82 82 82 81 81 81 81 84 84 85 86 86 90 70 16 8 44 73 68 43 20 12 18 17 19 15 13 11 12 11 11 11 14 16 23 25 25 30 28 29 42 58 61 61
82 82 82 81 81 83 84 85 85 84 84 85 86 86 45 8 29 45 39 26 20 13 11 14 18 17 15 12 12 12 14 14 16 17 20 22 23 26 31 38 47 54 60 59 63
82 82 81 81 81 81 83 84 82 83 88 85 86 67 31 8 28 30 18 16 17 10 11 13 16 15 15 13 14 17 13 15 19 21 20 21 26 30 40 46 55 58 61 65 68
82 82 81 82 82 82 84 84 84 85 84 84 82 61 16 23 29 23 14 15 13 12 13 16 16 17 16 14 13 16 16 15 17 21 20 18 21 31 49 50 56 61 64 68 71
82 82 82 83 85 86 86 87 82 80 83 83 65 48 12 38 24 19 15 10 11 11 9 9 14 17 15 14 12 17 13 20 21 22 20 19 21 42 51 53 57 60 62 64 66
82 83 86 87 88 88 88 84 84 82 74 65 52 32 19 17 19 18 15 11 12 9 12 15 16 16 19 13 12 13 18 21 25 19 17 19 23 36 52 53 54 56 62 64 60
81 84 87 88 88 87 72 37 20 19 25 18 17 14 12 12 16 15 12 14 15 16 18 18 14 15 15 19 18 21 19 20 19 16 20 23 28 36 49 55 56 58 65 62 59
81 84 87 89 88 88 58 21 24 23 21 20 20 19 17 14 13 17 13 17 19 19 17 17 17 15 16 19 19 19 20 18 16 21 23 24 26 35 46 52 54 52 55 56 58
82 86 88 88 89 45 36 27 26 24 24 16 16 17 14 13 12 16 15 18 20 22 19 20 16 18 15 18 18 18 18 19 17 16 27 31 22 30 40 51 50 50 50 49 50
84 86 88 91 41 42 26 29 25 23 17 11 13 12 15 13 11 13 14 15 19 20 21 20 16 17 18 18 17 20 17 16 16 16 14 22 14 26 26 34 42 46 48 46 51
85 84 87 86 50 27 25 28 23 20 17 10 14 11 13 12 12 15 14 14 19 21 20 20 19 20 22 18 17 18 15 16 16 16 19 19 15 17 32 30 28 40 44 44 44
85 85 85 65 58 34 30 27 20 14 18 12 11 12 12 10 10 16 16 14 16 19 19 17 16 16 15 16 15 15 16 17 21 17 17 20 17 14 19 31 32 32 39 43 44
86 88 84 60 19 37 32 19 20 17 12 14 12 11 11 10 10 16 17 19 19 26 26 21 17 15 15 16 17 16 18 21 18 18 17 27 24 22 24 31 35 36 35 41 43
87 88 76 64 52 42 23 17 24 11 14 14 12 12 11 10 10 17 20 21 20 20 23 18 14 19 16 16 15 18 18 19 24 18 16 28 24 18 38 47 51 44 38 39 43
88 56 52 43 55 49 22 22 18 15 17 15 13 13 13 11 10 11 18 17 17 20 21 23 20 17 17 15 13 18 19 15 24 29 18 17 20 24 44 45 55 45 45 46 49
81 54 42 48 50 27 23 36 20 18 17 14 16 15 15 13 12 12 16 13 14 18 16 21 19 16 14 14 15 16 16 18 19 31 27 21 28 20 36 41 50 61 52 52 62
52 36 41 46 34 26 21 25 23 20 15 13 16 16 15 15 13 13 14 12 12 16 19 18 20 14 16 16 16 16 16 20 18 21 19 21 18 28 34 34 43 56 51 51 52
48 38 37 35 26 39 30 29 36 17 14 14 15 16 16 15 14 13 12 14 12 16 19 20 22 22 14 15 16 15 17 22 18 32 26 23 16 20 35 40 48 54 50 51 50
53 51 40 32 22 33 30 22 18 16 18 17 17 17 16 17 20 15 13 12 10 16 22 23 25 21 19 14 18 18 19 20 29 30 36 22 17 31 43 46 52 52 53 58 69
56 44 41 42 44 38 38 35 23 30 26 22 21 22 19 21 20 19 14 10 11 25 62 33 33 28 12 16 18 22 19 19 22 23 26 19 21 22 30 45 52 57 59 61 72
59 63 62 42 42 44 48 49 44 44 41 40 38 44 44 32 22 21 16 14 11 46 31 27 34 29 22 18 14 14 18 18 22 22 19 19 23 22 25 38 42 52 59 63 68
58 57 54 48 54 44 60 58 50 47 45 48 45 47 50 42 25 32 42 28 24 23 34 40 33 35 26 26 20 22 17 18 19 22 23 22 26 24 35 47 50 54 62 67 71
67 65 61 58 50 42 48 53 52 52 43 44 41 49 50 44 41 39 41 42 41 47 38 45 41 38 26 33 28 28 25 25 25 24 22 28 26 40 40 49 51 54 62 69 75
Wind_Speed
14 14 13 13 12 12 12 13 13 14 15 13 12 11 11 11 10 2 5 3 4 3 3 5 3 1 1 2 2 2 3 3 3 2 6 2 1 3 4 8 4 5 4 6 16
15 15 15 14 14 13 13 13 12 13 13 14 12 12 11 10 2 6 5 4 3 8 4 4 4 1 2 2 2 3 2 5 1 2 6 6 2 7 6 5 4 5 5 14 18
15 15 15 15 15 15 13 14 13 12 12 12 11 11 8 7 3 3 1 6 9 4 4 2 4 2 2 0 1 2 2 2 3 11 8 8 4 5 7 8 8 10 14 16 16
15 15 15 15 16 16 16 15 15 13 12 11 9 8 6 4 1 3 6 8 9 2 4 3 3 2 2 2 1 2 1 3 4 4 5 4 1 4 11 9 3 10 18 19 18
16 16 16 16 16 16 18 17 15 15 12 10 7 6 3 3 3 5 10 9 5 2 3 3 4 2 2 2 2 2 2 4 7 9 8 3 7 6 10 7 4 12 17 19 15
17 17 17 17 17 17 17 16 15 15 12 8 5 2 3 3 3 4 9 7 5 3 3 3 3 2 1 1 3 3 6 9 6 3 2 4 2 4 1 3 9 14 16 14 15
18 18 18 19 19 19 18 18 17 15 10 3 3 2 2 5 4 5 5 3 5 2 3 1 3 3 3 3 5 4 5 3 7 5 2 2 3 6 4 7 10 12 13 12 12
19 19 20 20 20 20 19 18 17 8 2 5 3 2 5 3 2 4 2 4 3 1 2 2 2 2 2 4 3 3 1 5 3 7 2 4 8 2 6 9 11 12 12 11 10
20 21 21 21 21 21 20 20 7 2 5 6 3 2 3 1 3 4 3 2 5 2 1 1 2 3 1 1 2 3 5 2 3 4 4 4 10 2 8 10 9 10 11 11 9
20 21 21 21 21 21 22 5 2 3 2 3 1 3 2 2 4 5 4 7 3 6 2 1 3 2 2 3 4 3 2 1 3 3 8 8 10 3 8 9 9 9 9 8 9
21 21 22 22 23 20 9 2 1 2 0 4 2 2 3 2 5 4 4 6 4 2 5 2 4 7 4 3 4 2 3 5 4 4 4 6 7 6 5 7 8 10 10 7 6
22 23 24 24 23 19 3 5 5 2 7 5 8 7 6 3 2 4 7 5 3 7 3 3 8 6 3 4 3 2 3 5 6 2 4 5 7 4 4 6 9 12 9 6 5
23 22 23 24 25 3 4 10 2 7 3 4 4 4 4 9 5 9 12 5 5 6 7 6 3 2 8 5 5 5 6 2 5 5 1 4 4 4 3 7 8 9 6 8 7
22 22 22 28 1 4 1 0 5 6 3 2 3 3 6 5 6 6 13 7 4 13 6 6 5 5 3 4 7 3 6 6 6 4 2 2 3 4 4 10 6 10 12 13 12
22 22 20 11 6 3 2 6 2 4 2 2 3 4 2 7 9 6 6 3 9 7 6 3 5 8 7 6 11 2 2 3 2 2 2 5 5 1 4 4 3 9 14 15 13
23 22 19 2 2 5 7 8 4 1 5 2 4 3 7 4 3 5 9 3 3 6 1 4 2 3 3 4 8 3 1 3 2 0 4 1 4 4 4 1 6 2 10 13 13
24 23 10 2 1 6 8 3 2 4 3 2 2 2 3 7 5 7 14 13 8 6 7 3 12 5 6 5 4 4 3 2 4 4 4 4 3 6 5 4 9 9 7 9 10
27 18 2 4 4 8 2 2 4 2 4 2 2 1 3 4 5 4 13 12 4 3 4 4 3 7 6 15 6 9 7 4 3 3 1 3 5 2 4 6 10 12 6 8 9
20 1 1 2 4 3 3 5 5 4 2 4 2 2 2 3 3 7 9 10 11 11 7 5 3 2 5 3 9 6 6 2 6 1 4 1 3 9 5 9 7 7 6 8 6
3 3 3 6 4 2 3 3 2 2 4 1 0 1 2 3 3 7 8 2 5 13 8 4 3 1 2 6 5 4 9 4 1 5 5 2 4 6 6 11 10 8 8 6 10
1 1 6 2 3 1 6 4 3 4 3 2 1 1 2 2 2 3 4 2 2 5 7 5 4 2 4 3 6 5 4 4 2 3 4 3 3 4 10 10 10 9 10 7 9
3 2 2 3 2 1 4 4 2 1 1 1 0 1 2 3 0 1 4 0 1 6 9 6 3 5 9 1 1 0 2 5 4 5 1 4 5 4 7 8 8 10 9 6 7
3 2 1 3 2 2 1 2 2 2 0 1 1 1 1 1 1 1 1 1 0 6 7 9 5 3 4 4 4 5 5 4 4 1 6 4 5 2 5 7 9 11 10 8 8
1 1 2 3 2 1 3 1 4 3 2 1 2 2 1 2 1 2 2 1 4 2 4 8 4 5 6 1 3 5 5 6 5 4 6 6 7 7 7 9 11 12 11 10 8
4 3 2 2 2 2 0 1 3 2 2 5 4 5 1 2 1 2 3 5 1 2 3 4 4 4 7 8 7 6 7 11 8 2 7 1 6 7 6 8 12 13 11 11 10
3 2 1 2 3 1 3 1 1 1 0 3 4 4 2 3 1 1 8 2 3 3 2 0 3 3 2 2 6 5 10 12 9 4 9 4 7 4 4 2 9 12 13 12 12
2 0 3 2 1 2 2 3 1 2 2 1 4 2 1 2 7 11 10 11 7 5 4 2 3 4 4 2 2 4 7 8 5 7 4 6 2 6 5 7 5 7 9 8 9
Wind_Direction
15 8 12 2 3 347 348 344 338 340 336 336 334 338 334 330 313 248 242 217 137 180 121 129 98 11 327 55 39 172 89 103 163 246 333 175 258 116 130 141 172 161 136 115 136
13 7 4 359 352 346 345 332 334 336 332 329 332 336 334 339 318 253 253 181 220 155 122 117 115 123 72 47 46 21 110 181 217 252 298 308 246 147 179 169 182 149 98 145 148
8 5 359 354 348 340 334 328 331 328 329 325 326 330 329 324 281 7 26 183 171 153 122 102 115 97 83 192 150 141 126 164 265 246 271 297 267 191 184 212 199 192 159 162 165
5 360 355 348 340 335 332 330 326 323 325 318 322 319 323 277 76 31 103 118 149 120 116 98 80 74 67 71 66 263 183 185 270 281 271 269 244 222 222 242 205 189 165 163 179
359 357 348 345 336 332 326 323 320 322 317 310 308 314 309 289 275 24 114 120 116 107 108 113 89 95 67 336 293 210 329 264 275 284 261 249 244 247 244 241 180 154 164 172 178
354 351 345 340 334 327 322 317 319 312 308 296 284 309 274 271 7 134 122 125 131 129 138 99 62 68 71 328 328 340 286 301 326 341 265 290 325 205 358 150 139 161 175 172 178
352 348 342 337 332 327 321 319 317 313 297 253 215 214 245 263 356 138 128 98 155 146 144 93 54 14 322 334 344 308 318 50 23 3 24 289 229 232 346 146 160 172 173 170 175
350 344 340 334 328 324 319 318 315 317 67 137 153 213 253 356 107 151 124 99 99 101 39 28 37 67 335 331 343 7 11 307 54 349 43 300 311 317 149 162 184 178 171 164 166
347 341 336 332 326 322 323 318 299 127 128 141 162 251 263 355 208 186 191 152 122 169 4 322 63 49 155 72 263 30 270 328 347 355 326 357 305 29 181 185 197 192 178 167 138
345 339 332 330 325 323 324 291 129 165 141 185 227 259 210 199 170 150 168 172 141 131 143 101 75 193 116 206 247 241 299 322 271 342 310 301 286 251 208 207 209 205 188 177 153
344 338 333 329 324 326 338 220 315 154 116 231 125 288 292 326 150 171 167 164 131 133 179 66 217 230 244 182 130 98 303 298 271 301 277 315 303 320 215 219 213 216 206 183 133
342 339 332 328 324 320 269 83 89 349 303 249 248 264 275 324 126 152 170 168 153 179 129 167 249 240 151 164 187 206 259 273 303 9 271 316 303 283 248 237 234 231 213 187 157
341 338 333 328 321 349 345 122 37 168 259 288 203 194 210 183 216 184 184 146 160 166 190 219 0 100 170 157 195 220 239 226 301 327 40 314 279 276 232 254 233 235 219 196 185
339 338 336 327 315 341 151 58 318 194 319 250 215 197 157 181 200 177 182 162 170 207 172 244 223 179 165 225 201 230 214 264 290 299 293 297 291 263 265 281 240 235 214 201 186
335 335 333 341 310 264 50 321 185 211 289 95 131 111 125 204 133 188 171 136 172 160 175 209 192 195 206 231 188 119 197 321 345 197 259 186 252 247 284 324 318 213 219 213 190
330 330 330 157 233 263 315 311 212 283 244 95 125 148 159 217 118 116 175 73 108 139 236 258 237 222 204 162 193 99 158 69 66 259 248 162 278 242 256 263 299 354 231 217 197
328 321 306 261 290 326 308 237 142 217 353 62 72 24 214 183 146 152 175 182 178 175 217 255 246 215 200 230 198 176 189 245 201 201 252 74 236 277 270 264 268 294 286 227 192
327 319 196 230 317 337 264 122 177 254 265 342 358 25 171 150 200 127 159 187 191 128 140 222 216 184 173 219 218 193 203 219 241 212 46 130 236 246 289 289 282 277 262 212 187
324 340 193 284 259 248 219 194 206 203 316 338 282 118 106 151 188 186 181 203 199 186 201 189 255 277 224 166 207 145 197 60 117 75 251 255 260 262 257 263 272 260 217 200 179
331 323 20 336 170 194 182 197 219 232 310 281 114 331 108 29 162 189 175 168 207 202 209 178 259 149 336 156 68 247 138 167 136 187 226 186 269 265 253 247 231 224 227 148 118
305 131 4 71 252 137 201 202 212 244 303 9 100 96 55 43 42 162 169 116 191 154 211 156 237 188 279 187 215 158 178 68 111 299 245 231 227 212 245 250 234 204 215 134 133
329 76 28 279 121 355 166 178 201 181 311 56 112 322 33 42 44 134 182 208 146 152 164 180 162 217 240 46 29 192 232 188 241 183 210 300 252 174 248 267 222 208 171 115 126
38 344 58 282 144 169 207 167 222 164 252 107 68 353 20 5 9 237 230 128 262 174 165 173 201 225 192 165 143 226 197 191 117 157 192 247 264 175 260 248 207 202 170 135 131
302 112 45 61 33 109 156 128 174 51 79 296 38 71 23 357 59 324 305 286 336 88 108 144 155 237 268 41 105 173 186 191 231 179 156 231 286 279 260 246 207 194 176 163 154
6 71 9 104 87 60 172 252 140 128 47 25 94 64 50 208 283 243 353 309 207 120 88 185 223 207 264 245 240 232 178 179 216 207 237 203 216 268 268 261 225 190 175 178 175
17 347 68 78 310 250 7 40 120 108 286 80 79 349 209 212 316 90 356 293 13 349 82 110 181 172 242 267 187 234 241 231 221 189 265 266 263 291 327 331 184 186 186 186 180
28 145 285 21 70 208 122 150 152 332 124 69 31 346 254 125 307 285 263 264 274 327 322 289 166 179 232 342 199 227 230 210 209 203 196 209 316 353 320 326 299 202 164 179 181